Regional Weather Roundup
Issued by NWS State College, PA

Home | Current Version | Previous Version | Text Only | Print | Product List | Glossary On
Versions: 1 2 3 4 5 6 7 8 9 10 11 12 13 14 15 16 17 18 19 20 21 22 23 24 25 26 27 28 29 30 31 32 33 34 35 36 37 38 39 40 41 42 43 44 45 46 47 48 49 50
000
ASUS41 KCTP 150110
RWRCTP

REGIONAL WEATHER ROUNDUP
NATIONAL WEATHER SERVICE STATE COLLEGE PA
800 PM EST THU NOV 14 2019

Note: "fair" indicates few or no clouds below 12,000 feet with no
significant weather and/or obstructions to visibility.

* = STATION THAT DOES NOT REPORT PRECIPITATION /E.G. RAIN...SNOW...ETC/
    THUNDER OR FOG.

PAZ002>004-007>009-013>016-020>023-029>032-150200-
WESTERN PENNSYLVANIA

CITY           SKY/WX    TMP DP  RH WIND       PRES   REMARKS
ERIE           CLOUDY    36  23  59 SW10      30.22S
MEADVILLE      CLOUDY    33  21  61 SW7       30.20S
FRANKLIN*      CLOUDY    34  22  61 SW6       30.21S
NEW CASTLE     CLOUDY    36  22  56 CALM      30.25R
BEAVER COUNTY  FAIR      35  20  55 SW6       30.24R
BUTLER*        FAIR      34  20  56 SW3       30.24R
PITTSBURGH INT FAIR      35  18  49 SW5       30.24R
PITTSBURGH     FAIR      36  20  52 SW5       30.24R
INDIANA*       CLEAR     30  27  86 CALM      30.27R
LATROBE        PTCLDY    32  23  69 S7        30.25R
WASHINGTON CO* FAIR      31  24  75 CALM      30.28R
$$

PAZ004>006-010>012-017>019-024>028-033>037-041-042-045-046-049>053-150200-
CENTRAL PENNSYLVANIA

CITY           SKY/WX    TMP DP  RH WIND       PRES   REMARKS
BRADFORD       CLOUDY    33  19  56 SW3       30.16S
DUBOIS         MOCLDY    31  18  58 SW3       30.19R
CLEARFIELD     FAIR      31  19  61 CALM      30.21S
JOHNSTOWN      FAIR      34  18  52 W8        30.19S
ALTOONA        FAIR      31  19  61 CALM      30.23S
STATE COLLEGE  CLEAR     30  18  59 CALM      30.24R
WILLIAMSPORT   MOCLDY    34  20  56 N3        30.26S
SELINSGROVE    FAIR      35  20  54 CALM      30.28R
FT INDIANTOWN  FAIR      35  20  55 CALM      30.29S
CAPITAL CITY   FAIR      41  16  36 VRB3      30.30S
HARRISBURG     CLOUDY    40  19  43 VRB5      30.29S
YORK           MOCLDY    37  17  44 CALM      30.30R
$$

PAZ038>040-043-044-047-048-054-055-060>062-067>071-150200-
EASTERN PENNSYLVANIA

CITY           SKY/WX    TMP DP  RH WIND       PRES   REMARKS
SCRANTON       CLOUDY    36  17  46 S5        30.24F
MOUNT POCONO   CLOUDY    30  18  60 SW8       30.21S
ALLENTOWN      FAIR      39  20  46 CALM      30.30S
QUAKERTOWN*    PTCLDY    32  23  69 CALM      30.30S
READING        FAIR      38  24  57 CALM      30.30S
LANCASTER      FAIR      35  23  61 CALM      30.31R
COATESVILLE    MOCLDY    34  27  75 CALM      30.31S
POTTSTOWN      FAIR      34  22  61 CALM      30.32S
BLUE BELL      FAIR      32  28  84 CALM      30.32R
DOYLESTOWN     FAIR      39  23  52 SW3       30.30S
WILLOW GROVE   NOT AVBL
NORTH PHILA    FAIR      37  24  59 CALM      30.34R
PHILADELPHIA   MOCLDY    40  26  57 SW6       30.33S
$$



USA.gov is the U.S. government's official web portal to all federal, state and local government web resources and services.